Location: Rayville (historical)
(39.9992°N, 99.6815°W)
Time: 22:48:51
(UTC+00:00)

NOSS 3-1 (C) - Pass Details

Date: 18 February 2020
Orbit: 759 x 1449 km, 63.4° (Epoch: 26 March)

Event Time Altitude Azimuth Distance (km) Brightness Sun altitude
Rises 01:33:09 0° 204° (SSW) 3,228 6.6 -15.3°
Reaches altitude 10° 01:35:26 10° 202° (SSW) 2,338 5.8 -15.7°
Maximum altitude 01:40:42 68° 120° (ESE) 907 3.1 -16.7°
Enters shadow 01:46:10 13° 39° (NE) 2,448 5.2 -17.8°
